EZY514H EGKK-LFMN

Flight info

Callsign EZY514H
Flight time N/A
Altitude 33000
Route SFD Y47 BENBO L612 HAWKE UL612 VEULE DCT KOTAP DCT KETEX DCT KOTIS DCT KUKOR DCT UTUVA DCT LERGA DCT LIQID DCT LATAM DCT TUNUR DCT NISAR
Aircraft A320/M-SDE3FGHIRWY/LB1

Departure

Time 2026-05-06 12:51
Airport London Gatwick Airport (EGKK)

Arrival

Time N/A
Airport Nice-Côte d'Azur Airport (LFMN)
Time Latitude Longitude Altitude Speed Heading
2026-05-06 12:20 51.15861 -0.17950 210 ft 0 kts 78°
2026-05-06 12:23 51.15861 -0.17951 210 ft 0 kts 78°
2026-05-06 12:34 51.15860 -0.17956 231 ft 3 kts 78°
2026-05-06 12:35 51.15854 -0.17998 200 ft 4 kts 78°
2026-05-06 12:35 51.15850 -0.18032 211 ft 4 kts 82°
2026-05-06 12:35 51.15852 -0.18072 210 ft 4 kts 128°
2026-05-06 12:35 51.15871 -0.18093 213 ft 3 kts 167°
2026-05-06 12:36 51.15892 -0.18100 207 ft 0 kts 168°
2026-05-06 12:39 51.15872 -0.18093 208 ft 8 kts 167°
2026-05-06 12:39 51.15849 -0.18085 202 ft 2 kts 167°
2026-05-06 12:39 51.15822 -0.18076 202 ft 4 kts 167°
2026-05-06 12:40 51.15775 -0.18059 202 ft 12 kts 167°
2026-05-06 12:40 51.15715 -0.18038 209 ft 6 kts 167°
2026-05-06 12:40 51.15690 -0.18051 211 ft 3 kts 237°
2026-05-06 12:40 51.15688 -0.18071 207 ft 1 kts 271°
2026-05-06 12:41 51.15682 -0.18144 202 ft 12 kts 252°
2026-05-06 12:41 51.15654 -0.18295 204 ft 15 kts 254°
2026-05-06 12:41 51.15578 -0.18341 208 ft 12 kts 175°
2026-05-06 12:41 51.15495 -0.18317 207 ft 13 kts 168°
2026-05-06 12:42 51.15398 -0.18283 202 ft 16 kts 167°
2026-05-06 12:42 51.15276 -0.18238 202 ft 18 kts 167°
2026-05-06 12:42 51.15178 -0.18244 212 ft 8 kts 244°
2026-05-06 12:42 51.15172 -0.18332 209 ft 8 kts 263°
2026-05-06 12:43 51.15169 -0.18413 203 ft 7 kts 268°
2026-05-06 12:43 51.15161 -0.18500 208 ft 9 kts 260°
2026-05-06 12:43 51.15151 -0.18592 203 ft 8 kts 259°
2026-05-06 12:43 51.15140 -0.18676 206 ft 7 kts 258°
2026-05-06 12:44 51.15129 -0.18753 212 ft 8 kts 255°
2026-05-06 12:44 51.15110 -0.18868 211 ft 11 kts 256°
2026-05-06 12:44 51.15088 -0.19018 207 ft 17 kts 258°
2026-05-06 12:44 51.15054 -0.19236 208 ft 23 kts 244°
2026-05-06 12:45 51.14996 -0.19261 207 ft 7 kts 172°
2026-05-06 12:45 51.14984 -0.19336 205 ft 9 kts 255°
2026-05-06 12:45 51.14915 -0.19577 205 ft 13 kts 268°
2026-05-06 12:46 51.14905 -0.19710 205 ft 11 kts 259°
2026-05-06 12:46 51.14889 -0.19832 206 ft 11 kts 258°
2026-05-06 12:46 51.14872 -0.19967 212 ft 17 kts 257°
2026-05-06 12:46 51.14834 -0.20206 202 ft 27 kts 256°
2026-05-06 12:47 51.14785 -0.20547 207 ft 33 kts 258°
2026-05-06 12:47 51.14752 -0.20792 211 ft 22 kts 258°
2026-05-06 12:47 51.14730 -0.20964 204 ft 13 kts 258°
2026-05-06 12:47 51.14712 -0.21101 207 ft 12 kts 258°
2026-05-06 12:48 51.14701 -0.21182 203 ft 0 kts 257°
2026-05-06 12:48 51.14698 -0.21205 203 ft 5 kts 257°
2026-05-06 12:48 51.14691 -0.21252 205 ft 4 kts 257°
2026-05-06 12:49 51.14686 -0.21292 208 ft 4 kts 257°
2026-05-06 12:49 51.14681 -0.21308 207 ft 5 kts 243°
2026-05-06 12:49 51.14608 -0.21322 205 ft 18 kts 166°
2026-05-06 12:49 51.14523 -0.21170 202 ft 22 kts 77°
2026-05-06 12:50 51.14539 -0.21001 208 ft 0 kts 77°
2026-05-06 12:50 51.14539 -0.21000 208 ft 1 kts 77°
2026-05-06 12:50 51.14552 -0.20909 203 ft 34 kts 77°
2026-05-06 12:50 51.14670 -0.20157 207 ft 102 kts 78°
2026-05-06 12:51 51.14883 -0.18773 210 ft 153 kts 71°
2026-05-06 12:51 51.15156 -0.17166 863 ft 147 kts 75°
2026-05-06 12:51 51.15391 -0.15572 1648 ft 150 kts 73°
2026-05-06 12:51 51.15640 -0.13822 2106 ft 174 kts 74°